Location: Anglesey
(53.1800°N, 4.2200°W)
Time: 13:02:09
(UTC+00:00)

N. Korean satellite - Visible Passes

Search period start: 17 February 2019 00:00
Search period end: 27 February 2019 00:00
Orbit: 457 x 510 km, 97.2° (Epoch: 16 February)

Date Brightness Start Highest point End Pass type
(mag) Time Alt. Az. Time Alt. Az. Time Alt. Az.
17 Feb 9.3 05:49:41 10° NE 05:52:27 22° E 05:55:12 10° SE visible
17 Feb 8.5 18:04:07 10° SSW 18:07:33 37° W 18:10:58 10° NNW visible
18 Feb 10.1 05:25:57 10° ENE 05:27:29 12° E 05:28:59 10° ESE visible
19 Feb 7.0 06:33:07 10° NNE 06:36:38 65° ESE 06:40:03 10° S visible
19 Feb 10.2 18:49:54 10° WSW 18:51:51 14° W 18:53:48 10° NW visible
20 Feb 8.4 06:08:34 10° NNE 06:11:47 34° E 06:14:57 10° SSE visible
20 Feb 9.5 18:23:54 10° SSW 18:26:54 23° W 18:29:51 10° NW visible
21 Feb 9.6 05:44:18 10° NE 05:46:52 19° E 05:49:24 10° SE visible
22 Feb 10.3 05:20:58 10° ENE 05:21:51 11° E 05:22:45 10° ESE visible
23 Feb 7.3 06:27:36 10° NNE 06:31:03 56° E 06:34:25 10° S visible
23 Feb 10.1 18:44:02 10° SW 18:46:15 15° W 18:48:26 10° NW visible
24 Feb 8.7 06:03:05 10° NNE 06:06:11 29° E 06:09:14 10° SSE visible
24 Feb 9.3 18:18:12 10° SSW 18:21:18 26° W 18:24:22 10° NW visible
25 Feb 9.8 05:38:55 10° NE 05:41:14 17° E 05:43:33 10° SE visible
